Date String (YYYY-MM-DD hh:mm:ss) UTC,Instrument flags,Ambient pressure (hPa),Sample flow (lpm),Bypass flow (lpm),Sample temperature (°C),Ambient temperature (°C),ASC tube jacket temperature (°C),LED temperature (°C),Box temperature (°C),Sample RH (%),Span deviation,Mass concentration (μg/m³),Mass concentration (μg/m³),Mass concentration (μg/m³)
DateTimeUTC,F1_M11,P_M11,Q1_M11,Q2_M11,T1_M11,T2_M11,T3_M11,T4_M11,T5_M11,U1_M11,ZSPAN_M11,X0_M11,X2_M11,X1_M11
2022-08-30 13:00:00,,0833.6,5.00,0.00,30.5,29.3,00.0,39.3,32.2,22.1,0000.0,0018.91,0007.20,0005.88
2022-08-30 13:01:00,,0833.6,4.98,0.00,30.5,29.3,00.0,39.3,32.2,22.1,0000.0,0018.99,0007.28,0005.91
2022-08-30 13:02:00,,0833.6,5.00,0.00,30.5,29.3,00.0,39.3,32.2,22.1,0000.0,0019.22,0007.36,0005.94
2022-08-30 13:03:00,,0833.6,5.01,0.00,30.5,29.3,00.0,39.3,32.2,22.1,0000.0,0018.40,0007.39,0005.97
2022-08-30 13:04:00,,0833.6,5.00,0.00,30.5,29.2,00.0,39.3,32.2,22.2,0000.0,0016.98,0007.40,0006.00
2022-08-30 13:05:00,,0833.6,5.00,0.00,30.5,29.2,00.0,39.3,32.2,22.2,0000.0,0015.69,0007.38,0006.03
2022-08-30 13:06:00,,0833.7,5.00,0.00,30.5,29.2,00.0,39.3,32.2,22.2,0000.0,0015.40,0007.38,0006.04
2022-08-30 13:07:00,,0833.7,5.00,0.00,30.5,29.2,00.0,39.3,32.2,22.2,0000.0,0016.45,0007.39,0006.04
2022-08-30 13:08:00,,0833.7,5.00,0.00,30.5,29.2,00.0,39.3,32.2,22.2,0000.0,0017.30,0007.38,0006.05
2022-08-30 13:09:00,,0833.7,4.98,0.00,30.5,29.2,00.0,39.3,32.2,22.2,0000.0,0018.20,0007.40,0006.07
2022-08-30 13:10:00,,0833.7,5.00,0.00,30.5,29.2,00.0,39.3,32.2,22.2,0000.0,0018.66,0007.44,0006.08
2022-08-30 13:11:00,,0833.7,5.00,0.00,30.5,29.2,00.0,39.3,32.2,22.2,0000.0,0019.66,0007.48,0006.07
2022-08-30 13:12:00,,0833.7,5.00,0.00,30.5,29.2,00.0,39.3,32.2,22.3,0000.0,0019.03,0007.41,0006.04
2022-08-30 13:13:00,,0833.7,5.00,0.00,30.5,29.2,00.0,39.3,32.2,22.4,0000.0,0018.25,0007.36,0006.01
2022-08-30 13:14:00,,0833.7,5.00,0.00,30.5,29.2,00.0,39.3,32.2,22.4,0000.0,0018.43,0007.32,0005.99
2022-08-30 13:15:00,,0833.7,5.00,0.00,30.5,29.2,00.0,39.3,32.2,22.3,0000.0,0018.57,0007.28,0005.98
2022-08-30 13:16:00,,0833.7,5.00,0.00,30.5,29.2,00.0,39.3,32.2,22.3,0000.0,0018.87,0007.26,0005.96
2022-08-30 13:17:00,,0833.7,5.00,0.00,30.5,29.3,00.0,39.3,32.2,22.2,0000.0,0018.45,0007.26,0005.95
2022-08-30 13:18:00,,0833.7,5.00,0.00,30.5,29.1,00.0,39.3,32.3,22.2,0000.0,0017.41,0007.27,0005.96
2022-08-30 13:19:00,,0833.7,4.99,0.00,30.5,27.8,00.0,39.3,32.2,22.3,0000.0,0017.27,0007.27,0005.96
2022-08-30 13:20:00,,0833.7,5.00,0.00,30.5,27.3,00.0,39.2,32.1,22.4,0000.0,0016.98,0007.30,0005.96
2022-08-30 13:21:00,,0833.7,5.01,0.00,30.4,27.4,00.0,39.2,32.0,22.3,0000.0,0017.01,0007.36,0005.96
2022-08-30 13:22:00,,0833.7,4.99,0.00,30.3,27.7,00.0,39.2,31.9,22.6,0000.0,0017.10,0007.30,0005.96
2022-08-30 13:23:00,,0833.7,5.00,0.00,30.3,28.0,00.0,39.1,31.9,22.7,0000.0,0017.34,0007.35,0005.96
2022-08-30 13:24:00,,0833.7,5.00,0.00,30.2,28.2,00.0,39.1,31.9,22.4,0000.0,0017.50,0007.36,0005.96
2022-08-30 13:25:00,,0833.7,5.00,0.00,30.2,28.3,00.0,39.1,31.9,22.6,0000.0,0018.13,0007.36,0005.95
2022-08-30 13:26:00,,0833.7,5.00,0.00,30.2,28.5,00.0,39.1,31.9,22.5,0000.0,0019.20,0007.39,0005.94
2022-08-30 13:27:00,,0833.7,5.01,0.00,30.2,28.6,00.0,39.1,31.9,22.4,0000.0,0019.56,0007.43,0005.93
2022-08-30 13:28:00,,0833.8,5.00,0.00,30.2,28.7,00.0,39.1,31.9,22.6,0000.0,0020.24,0007.42,0005.93
2022-08-30 13:29:00,,0833.8,5.00,0.00,30.2,28.7,00.0,39.0,31.9,22.7,0000.0,0020.64,0007.37,0005.92
2022-08-30 13:30:00,,0833.9,5.00,0.00,30.2,28.8,00.0,39.0,31.9,22.6,0000.0,0020.56,0007.40,0005.92
2022-08-30 13:31:00,,0833.8,5.00,0.00,30.2,28.8,00.0,39.0,31.9,22.6,0000.0,0020.44,0007.38,0005.91
2022-08-30 13:32:00,,0833.8,5.00,0.00,30.2,28.9,00.0,39.0,32.0,22.7,0000.0,0020.13,0007.30,0005.90
2022-08-30 13:33:00,,0833.8,5.00,0.00,30.2,28.9,00.0,39.0,32.0,22.6,0000.0,0019.15,0007.32,0005.89
2022-08-30 13:34:00,,0833.8,5.00,0.00,30.2,28.9,00.0,39.0,32.0,22.4,0000.0,0019.61,0007.26,0005.89
2022-08-30 13:35:00,,0833.8,5.00,0.00,30.2,29.0,00.0,39.0,32.0,22.4,0000.0,0020.03,0007.23,0005.89
2022-08-30 13:36:00,,0833.8,5.00,0.00,30.2,29.0,00.0,39.0,32.0,22.5,0000.0,0020.04,0007.21,0005.88
2022-08-30 13:37:00,,0833.8,5.00,0.00,30.2,29.0,00.0,39.1,32.0,22.6,0000.0,0019.82,0007.21,0005.87
2022-08-30 13:38:00,,0833.8,5.00,0.00,30.2,29.0,00.0,39.1,32.0,22.5,0000.0,0020.32,0007.25,0005.88
2022-08-30 13:39:00,,0833.7,5.00,0.00,30.3,29.0,00.0,39.1,32.0,22.2,0000.0,0019.69,0007.21,0005.88
2022-08-30 13:40:00,,0833.7,5.00,0.00,30.3,29.1,00.0,39.1,32.0,22.4,0000.0,0019.70,0007.20,0005.88
2022-08-30 13:41:00,,0833.8,5.00,0.00,30.3,29.1,00.0,39.1,32.1,22.4,0000.0,0019.56,0007.19,0005.87
2022-08-30 13:42:00,,0833.8,5.01,0.00,30.3,29.1,00.0,39.1,32.1,22.4,0000.0,0019.02,0007.20,0005.87
2022-08-30 13:43:00,,0833.8,4.98,0.00,30.3,29.1,00.0,39.1,32.1,22.2,0000.0,0018.97,0007.23,0005.87
2022-08-30 13:44:00,,0833.8,5.00,0.00,30.3,29.1,00.0,39.1,32.1,22.2,0000.0,0019.74,0007.23,0005.88
2022-08-30 13:45:00,,0833.9,5.00,0.00,30.3,29.2,00.0,39.1,32.1,22.3,0000.0,0019.27,0007.25,0005.88
2022-08-30 13:46:00,,0833.9,5.00,0.00,30.3,29.2,00.0,39.1,32.1,22.0,0000.0,0019.05,0007.27,0005.89
2022-08-30 13:47:00,,0833.9,4.99,0.00,30.3,29.2,00.0,39.1,32.1,22.0,0000.0,0018.87,0007.30,0005.90
2022-08-30 13:48:00,,0833.9,5.01,0.00,30.3,29.2,00.0,39.1,32.1,22.1,0000.0,0018.23,0007.32,0005.90
2022-08-30 13:49:00,,0833.9,5.01,0.00,30.4,29.2,00.0,39.2,32.1,21.9,0000.0,0017.36,0007.29,0005.91
2022-08-30 13:50:00,,0833.9,5.01,0.00,30.4,29.2,00.0,39.2,32.1,21.7,0000.0,0017.95,0007.34,0005.91
2022-08-30 13:51:00,,0833.9,4.98,0.00,30.4,29.2,00.0,39.2,32.2,21.7,0000.0,0018.33,0007.39,0005.91
2022-08-30 13:52:00,,0833.9,5.00,0.00,30.4,29.2,00.0,39.2,32.2,21.8,0000.0,0017.63,0007.37,0005.94
2022-08-30 13:53:00,,0833.9,5.01,0.00,30.4,29.2,00.0,39.2,32.2,22.0,0000.0,0017.49,0007.32,0005.94
2022-08-30 13:54:00,,0833.9,5.01,0.00,30.4,29.2,00.0,39.2,32.2,21.9,0000.0,0017.82,0007.27,0005.94
2022-08-30 13:55:00,,0833.9,5.00,0.00,30.4,28.9,00.0,39.2,32.2,22.1,0000.0,0017.31,0007.23,0005.94
2022-08-30 13:56:00,,0833.9,5.00,0.00,30.4,27.6,00.0,39.2,32.1,21.8,0000.0,0016.82,0007.25,0005.95
2022-08-30 13:57:00,,0833.9,5.00,0.00,30.3,26.9,00.0,39.1,32.0,21.3,0000.0,0016.85,0007.24,0005.94
2022-08-30 13:58:00,,0833.9,5.00,0.00,30.3,27.1,00.0,39.0,31.9,21.5,0000.0,0015.93,0007.18,0005.93
2022-08-30 13:59:00,,0833.9,5.00,0.00,30.2,27.3,00.0,39.0,31.8,21.6,0000.0,0015.77,0007.11,0005.92
